DELTA 1 DEB, 42094

Orbit data source: Space-Track

DELTA 1 DEB, 42094 is space debris in SSO originally from a launch on Sun, 15 Dec 1968 UTC launched from the Air Force Western Test Range (AFWTR). Debris objects in space refer to the collection of defunct objects orbiting the Earth. Examples of debris include non-operational satellites, rocket bodies, and fragments generated from explosions, collisions, or faulty payload assembly.

Loading next visibility...
Identifier
42094, 1968-114W
Orbit
SSO
Country
Flag of USUS
Related business
Manufacturer
Aerojet
Mission
Spacecraft
Bus & Motor
Unknown
Mass
Unknown
Launch date (UTC)
1968-12-15 (58 years ago)
Launch vehicle
Unknown
Launch site
Air Force Western Test Range (AFWTR)
Object type
Payload
Rocket body
Debris
Shape & HBR
Unknown shape, 0.1 m
Radar Cross Section
Small (<0.1 m²)

Expand to show TLE details & history
Last TLE update: 1 week ago

TLE from 1 week ago
0 DELTA 1 DEB
1 42094U 68114W   26166.41630054  .00000099  00000-0  10214-2 0  9991
2 42094 101.5900  54.3375 0204621 357.4997   2.5030 12.37386897295812
Epoch: 2026-06-15T09:59Z
TLE epoch observation values (Epoch: 2026-06-15T09:59:28.366Z)
Latitude
-0.00002°
Longitude
0.76631°
Altitude
1,358.833 km
Speed
7.252 km/s
True Right ascension
03h 37m 21s
True Declination
0° 00' 00"
Sunlit
Object was in daylight at epoch
Visualization orbit readout
Latitude
Unknown
Longitude
Unknown
Altitude
Unknown
Speed
Unknown
Apparent Right ascension
Unknown
Apparent Declination
Unknown
Sunlit
N/A
Visualization observer readout
Local Sidereal Time
21:55:33
Azimuth
Unknown
Elevation
Unknown
Doppler factor
Unknown
Orbital elements
Apogee altitude
1,676.768 km
Perigee altitude
1,353.737 km
Semi-major axis
7,893.39 km
Eccentricity
0.02046
Inclination
101.59°
RAAN
54.3375°
Arg. of periapsis
357.4997°
True anomaly
2.60808°
Mean anomaly
2.503°
Eccentric anomaly
2.55527°
Mean motion
3.09491 °/min
Orbital period
116.32 mins
BSTAR
0.0010214
Loading maneuver chart data...
Computing Atmospheric mass density...
Loading historical data...
Loading historical data...
Loading historical data...
Loading historical data...
Loading historical data...
Loading historical data...
Loading historical data...

Documentation

Showing up to 5 results
|